Weather reports worldwide

Advertisment
Besancon, France (7288): temperature & dewpoint: 22.02.2017 15:00:00 - 28.02.2017 15:00:00 (CET)Besancon, France (7288): temperature 5cm: 22.02.2017 15:00:00 - 28.02.2017 15:00:00 (CET)Besancon, France (7288): temperature -20cm & temperature -100cm: 22.02.2017 15:00:00 - 28.02.2017 15:00:00 (CET)Besancon, France (7288): wind speed & gusts: 22.02.2017 15:00:00 - 28.02.2017 15:00:00 (CET)Besancon, France (7288): wind direction: 22.02.2017 15:00:00 - 28.02.2017 15:00:00 (CET)Besancon, France (7288): reduced air pressure: 22.02.2017 15:00:00 - 28.02.2017 15:00:00 (CET)Besancon, France (7288): visibility: 22.02.2017 15:00:00 - 28.02.2017 15:00:00 (CET)Besancon, France (7288): sunshine duration: 22.02.2017 15:00:00 - 28.02.2017 15:00:00 (CET)Besancon, France (7288): precipitation: 22.02.2017 15:00:00 - 28.02.2017 15:00:00 (CET)
Date & Time tt [°C] td [°C] tt 5cm [°C] tt -20cm [°C] tt -100cm [°C] ff [km/h] ff [kn] fx [km/h] fx [kn] dd ppp [hPa] vv [km] sd [min] rr [mm]
28.02.2017 15:00:00 6,2 2,6 6,0 6,6 6,9 18 10 49 26 SW 997,7 25 0 0,0
28.02.2017 14:00:00 5,6 3,4 4,4 6,5 6,9 22 12 52 28 SSW 996,9 20 0 2,2
28.02.2017 13:00:00 5,1 4,1 4,8 6,5 6,9 27 15 58 31 WSW 997,4 - 0 6,5
28.02.2017 12:00:00 7,7 5,0 6,4 6,6 6,9 28 15 58 31 SSW 996,7 12 0 0,4
28.02.2017 11:00:00 6,0 3,7 6,0 6,6 6,9 5 3 17 9 S 997,6 20 0 0,0
28.02.2017 10:00:00 5,2 2,2 4,8 6,6 6,9 6 4 36 19 SSW 1000,0 25 0 0,0
28.02.2017 09:00:00 5,4 1,9 4,9 6,7 6,9 11 6 39 21 SSW 1001,0 20 0 0,0
28.02.2017 08:00:00 5,5 1,6 4,6 6,7 6,9 11 6 34 19 SSW 1001,5 20 0 0,0
28.02.2017 07:00:00 5,0 2,2 4,3 6,7 6,9 12 7 32 18 SSW 1001,6 15 0 0,0
28.02.2017 06:00:00 4,6 2,3 3,9 6,8 6,9 13 7 37 20 SSW 1002,3 15 0 0,0
28.02.2017 05:00:00 4,1 2,6 2,9 6,9 6,9 16 8 35 19 SSW 1002,5 - 0 0,0
28.02.2017 04:00:00 3,1 2,2 2,2 6,9 6,9 9 5 24 13 SSW 1003,0 - 0 1,4
28.02.2017 03:00:00 2,6 1,9 1,9 6,9 6,9 9 5 44 24 SSW 1003,4 - 0 4,4
28.02.2017 02:00:00 3,7 2,7 3,2 6,9 7,0 13 7 47 26 W 1003,3 - 0 6,1
28.02.2017 01:00:00 7,0 5,8 6,3 6,9 7,0 24 13 59 32 SW 1001,1 - 0 6,0
28.02.2017 00:00:00 7,2 5,8 6,6 6,8 7,0 24 13 55 30 WSW 1001,1 - 0 3,9
27.02.2017 23:00:00 8,1 7,3 7,4 6,7 6,9 11 6 41 22 SSW 1001,0 - 0 4,8
27.02.2017 22:00:00 8,0 6,8 6,6 6,7 7,0 18 10 58 31 SW 1002,4 - 0 5,3
27.02.2017 21:00:00 11,4 6,3 8,8 6,6 7,0 20 11 73 40 WSW 1001,7 - 0 0,4
27.02.2017 20:00:00 13,5 4,6 12,6 6,5 6,9 29 16 69 37 SSW 1000,6 - 0 0,0
27.02.2017 19:00:00 13,6 3,9 12,8 6,4 7,0 30 16 68 37 SSW 1000,8 - 0 0,0
27.02.2017 18:00:00 14,1 3,8 13,5 6,2 7,0 19 10 57 31 SSW 1001,2 - 0 0,0
27.02.2017 17:00:00 15,0 4,1 14,7 6,0 7,0 23 12 56 30 SW 1001,8 25 33 0,0
27.02.2017 16:00:00 15,7 4,4 16,2 5,9 7,0 18 10 50 27 SW 1002,5 25 45 0,0
27.02.2017 15:00:00 15,0 4,9 15,7 5,7 7,0 21 12 45 24 SW 1003,4 25 51 0,0
27.02.2017 14:00:00 13,6 5,2 14,1 5,6 7,0 19 11 51 28 SW 1005,4 - 45 0,0
27.02.2017 13:00:00 12,8 4,5 15,1 5,5 6,9 27 14 56 31 SW 1007,2 - 57 0,0
27.02.2017 12:00:00 11,7 4,2 14,8 5,5 6,9 21 12 48 26 SW 1008,6 25 60 0,0
27.02.2017 11:00:00 10,6 2,9 13,8 5,5 6,9 22 12 42 23 SW 1009,6 20 60 0,0
27.02.2017 10:00:00 9,4 1,5 7,3 5,6 6,9 11 6 20 11 SW 1010,5 18 50 0,0
27.02.2017 09:00:00 3,5 0,4 -0,5 5,7 6,9 0 0 3 2 N 1012,1 12 26 0,0
27.02.2017 08:00:00 1,2 -1,2 -2,2 5,8 6,9 0 0 6 4 N 1012,8 12 0 0,0
27.02.2017 07:00:00 1,1 -1,1 -2,8 5,9 7,0 3 1 5 3 NNE 1013,1 12 0 0,0
27.02.2017 06:00:00 1,2 -1,4 -3,0 5,9 6,9 2 1 5 3 NE 1013,8 10 0 0,0
27.02.2017 05:00:00 1,2 -1,7 -2,8 6,0 6,9 5 3 8 4 NNE 1014,4 - 0 0,0
27.02.2017 04:00:00 1,3 -1,4 -2,5 6,1 7,0 2 1 5 3 NNE 1014,9 - 0 0,0
27.02.2017 03:00:00 1,8 -1,3 -2,0 6,2 6,9 4 2 7 4 NNE 1015,8 - 0 0,0
27.02.2017 02:00:00 1,9 -1,2 -1,9 6,2 7,0 0 0 5 3 N 1016,3 - 0 0,0
27.02.2017 01:00:00 2,5 -1,3 -0,7 6,3 7,0 3 1 5 3 NE 1016,7 - 0 0,0
27.02.2017 00:00:00 2,6 -1,4 -1,3 6,3 6,9 0 0 6 4 N 1017,1 - 0 0,0
26.02.2017 23:00:00 3,1 -1,1 -1,1 6,4 6,9 2 1 5 3 NNE 1017,5 - 0 0,0
26.02.2017 22:00:00 4,1 -0,9 -0,6 6,4 7,0 0 0 3 2 N 1017,7 - 0 0,0
26.02.2017 21:00:00 5,8 -0,9 1,0 6,4 6,9 0 0 3 2 N 1017,9 - 0 0,0
26.02.2017 20:00:00 6,8 -0,7 2,2 6,4 7,0 0 0 5 3 N 1017,8 - 0 0,0
26.02.2017 19:00:00 9,5 -1,6 5,1 6,3 7,0 4 2 10 6 SSW 1017,4 - 5 0,0
26.02.2017 18:00:00 11,7 -1,8 10,7 6,2 6,9 8 5 21 12 SW 1016,8 - 57 0,0
26.02.2017 17:00:00 13,1 -2,4 13,7 6,0 6,9 11 6 27 15 SW 1016,6 15 60 0,0
26.02.2017 16:00:00 12,9 -1,8 13,5 5,9 6,9 13 7 28 15 SSW 1016,9 15 55 0,0
26.02.2017 15:00:00 12,3 -0,9 13,2 5,8 6,9 12 7 29 16 SW 1017,2 15 9 0,0
26.02.2017 14:00:00 12,0 -0,9 14,2 5,7 6,9 11 6 24 13 WSW 1018,1 12 2 0,0
26.02.2017 13:00:00 12,2 -0,4 14,1 5,6 6,9 13 7 26 14 SW 1018,8 12 60 0,0
26.02.2017 12:00:00 10,4 -0,2 10,0 5,6 6,9 13 7 29 15 SW 1019,5 12 37 0,0
26.02.2017 11:00:00 8,8 0,0 8,9 5,7 6,9 10 5 20 11 SW 1020,1 12 13 0,0
26.02.2017 10:00:00 6,3 0,8 5,2 5,7 6,9 8 4 21 12 SSW 1020,6 12 36 0,0
26.02.2017 09:00:00 2,7 0,4 -0,3 5,8 6,9 3 1 6 3 SW 1021,4 12 10 0,0
26.02.2017 08:00:00 0,6 -0,7 -1,9 5,9 6,9 0 0 5 3 N 1021,2 12 0 0,0
26.02.2017 07:00:00 0,6 -0,7 -1,4 5,9 6,9 0 0 4 2 N 1020,7 8 0 0,0
26.02.2017 06:00:00 1,1 0,2 -1,6 6,0 7,0 0 0 5 3 N 1020,2 8 0 0,0
26.02.2017 05:00:00 0,7 -0,2 -2,1 6,1 6,9 0 0 5 3 N 1020,4 - 0 0,0
26.02.2017 04:00:00 0,7 -0,5 -1,9 6,2 6,9 2 1 3 2 N 1020,6 - 0 0,0
26.02.2017 03:00:00 0,9 -0,4 -1,2 6,2 7,0 0 0 4 2 N 1020,6 - 0 0,0
26.02.2017 02:00:00 1,1 -0,2 -1,1 6,3 6,9 0 0 4 2 N 1020,8 - 0 0,0
26.02.2017 01:00:00 1,2 0,2 -1,5 6,4 6,9 0 0 3 2 N 1021,1 - 0 0,0
26.02.2017 00:00:00 1,7 0,4 -1,5 6,5 7,0 0 0 4 2 N 1021,4 - 0 0,0
25.02.2017 23:00:00 1,8 -0,3 -1,4 6,5 6,9 0 0 3 2 N 1021,5 - 0 0,0
25.02.2017 22:00:00 2,5 0,2 -1,3 6,5 6,9 0 0 4 2 N 1021,7 - 0 0,0
25.02.2017 21:00:00 3,5 0,4 -0,6 6,5 6,9 0 0 7 4 N 1021,5 - 0 0,0
25.02.2017 20:00:00 4,6 0,2 0,2 6,4 6,9 2 1 4 2 W 1021,1 - 0 0,0
25.02.2017 19:00:00 6,3 0,4 1,7 6,4 6,9 3 1 6 3 N 1020,8 - 0 0,0
25.02.2017 18:00:00 8,5 0,0 5,4 6,3 6,9 0 0 6 3 N 1020,2 - 49 0,0
25.02.2017 17:00:00 10,2 -0,1 13,5 6,1 6,9 2 1 14 8 ENE 1020,1 15 60 0,0
25.02.2017 16:00:00 10,5 0,2 16,1 6,0 6,9 3 2 17 9 E 1020,8 15 60 0,0
25.02.2017 15:00:00 9,3 1,2 12,3 5,9 6,8 7 4 18 10 N 1021,6 15 60 0,0
25.02.2017 14:00:00 9,1 -1,1 17,2 5,8 6,9 5 3 20 11 NE 1021,8 12 60 0,0
25.02.2017 13:00:00 7,5 1,1 16,5 5,8 6,9 6 4 17 9 NNE 1022,8 12 60 0,0
25.02.2017 12:00:00 5,8 1,9 7,5 5,9 6,9 5 3 17 9 NE 1023,6 12 60 0,0
25.02.2017 11:00:00 2,4 0,8 6,0 5,9 6,9 9 5 16 9 NNE 1024,6 6 25 0,0
25.02.2017 10:00:00 1,2 1,1 0,1 6,0 6,9 4 2 19 10 NE 1024,4 3,0 2 0,0
25.02.2017 09:00:00 -0,4 -0,5 -0,8 6,1 6,9 5 3 15 8 NE 1024,3 0,9 0 0,0
25.02.2017 08:00:00 -1,3 -1,4 -2,0 6,2 6,9 6 4 13 7 NNE 1023,9 0,8 0 0,0
25.02.2017 07:00:00 -2,0 -2,1 -6,1 6,4 6,9 5 3 9 5 NNE 1023,7 0,8 0 0,0
25.02.2017 06:00:00 -2,1 -2,5 -5,5 6,5 6,8 0 0 5 3 N 1023,6 3,0 0 0,0
25.02.2017 05:00:00 -1,5 -1,8 -5,3 6,6 6,9 3 2 4 2 SE 1023,3 - 0 0,0
25.02.2017 04:00:00 -1,4 -1,7 -5,4 6,7 6,8 0 0 4 2 N 1023,2 - 0 0,0
25.02.2017 03:00:00 -1,1 -1,5 -4,6 6,8 6,8 3 2 6 4 NNE 1023,5 - 0 0,0
25.02.2017 02:00:00 -1,0 -1,6 -4,4 6,9 6,8 2 1 6 3 N 1023,6 - 0 0,0
25.02.2017 01:00:00 -0,2 -0,9 -3,6 7,0 6,8 2 1 4 2 NNE 1023,4 - 0 0,0
25.02.2017 00:00:00 1,0 0,0 -2,7 7,0 6,8 3 1 6 4 NNE 1023,2 - 0 0,0
24.02.2017 23:00:00 2,3 1,1 0,1 7,1 6,8 4 2 8 4 N 1022,6 - 0 0,0
24.02.2017 22:00:00 3,3 2,0 2,2 7,1 6,8 0 0 3 2 N 1022,2 - 0 0,0
24.02.2017 21:00:00 3,4 2,1 2,8 7,2 6,8 0 0 7 4 N 1021,8 - 0 0,0
24.02.2017 20:00:00 3,2 2,0 1,4 7,2 6,8 4 2 11 6 W 1021,2 - 0 0,0
24.02.2017 19:00:00 3,8 1,8 2,1 7,2 6,8 5 3 11 6 WSW 1020,0 - 0 0,0
24.02.2017 18:00:00 4,1 1,3 2,3 7,2 6,8 4 2 21 12 SW 1018,9 - 0 0,0
24.02.2017 17:00:00 4,6 1,3 4,3 7,1 6,8 19 10 36 19 NNW 1018,1 12 10 0,0
24.02.2017 16:00:00 6,0 0,3 6,8 7,1 6,8 9 5 32 18 W 1017,1 15 0 0,0
24.02.2017 15:00:00 7,4 0,6 8,5 7,0 6,8 5 3 17 9 W 1016,2 14 3 0,0
24.02.2017 14:00:00 6,8 1,1 5,9 6,9 6,8 5 3 17 9 W 1016,3 14 12 0,0
24.02.2017 13:00:00 6,2 1,1 5,5 6,9 6,8 8 4 18 10 W 1016,5 9 1 0,2
24.02.2017 12:00:00 6,7 2,0 8,7 6,9 6,7 6 3 16 9 W 1016,7 12 3 0,0
24.02.2017 11:00:00 6,1 2,2 7,3 6,9 6,8 6 4 17 9 SSW 1016,7 12 2 0,0
24.02.2017 10:00:00 5,6 2,2 6,0 7,0 6,8 5 3 16 9 SW 1016,7 10 0 0,0
24.02.2017 09:00:00 5,0 2,0 4,0 7,0 6,8 9 5 21 11 WSW 1016,4 10 0 0,0
24.02.2017 08:00:00 4,6 2,0 3,1 7,1 6,8 5 3 17 9 WSW 1015,8 10 0 0,0
24.02.2017 07:00:00 4,8 2,0 3,0 7,1 6,7 6 4 16 9 SW 1015,0 8 0 0,0
24.02.2017 06:00:00 5,2 2,4 3,8 7,1 6,7 8 4 18 10 SW 1014,5 8 0 0,0
24.02.2017 05:00:00 5,4 2,6 3,6 7,1 6,7 6 4 18 10 SW 1014,4 - 0 0,0
24.02.2017 04:00:00 5,8 3,5 4,6 7,2 6,8 9 5 16 9 SSW 1013,7 - 0 0,0
24.02.2017 03:00:00 5,6 3,9 4,7 7,2 6,7 5 3 16 9 SW 1013,3 - 0 0,0
24.02.2017 02:00:00 5,5 4,1 4,7 7,2 6,7 6 3 16 9 SW 1012,8 - 0 0,4
24.02.2017 01:00:00 5,9 3,6 4,9 7,2 6,7 10 5 41 22 SW 1012,4 - 0 0,2
24.02.2017 00:00:00 7,1 2,0 5,5 7,2 6,7 15 8 38 20 W 1011,6 - 0 0,0
23.02.2017 23:00:00 9,1 7,5 8,5 7,1 6,7 21 11 40 22 SW 1010,6 - 0 0,0
23.02.2017 22:00:00 9,3 7,7 8,6 7,1 6,7 17 9 40 21 SW 1010,0 - 0 0,0
23.02.2017 21:00:00 9,7 8,1 8,8 7,0 6,7 18 10 41 22 SW 1009,4 - 0 0,6
23.02.2017 20:00:00 11,6 4,8 11,0 7,0 6,7 11 6 36 20 WSW 1008,3 - 0 0,0
23.02.2017 19:00:00 12,5 4,9 11,7 6,9 6,7 17 9 46 25 WSW 1007,8 - 0 0,0
23.02.2017 18:00:00 13,9 4,7 13,0 6,8 6,7 15 8 33 18 WSW 1006,8 - 0 0,0
23.02.2017 17:00:00 14,8 4,5 14,2 6,7 6,7 14 8 40 22 SW 1006,2 20 0 0,0
23.02.2017 16:00:00 15,8 3,9 15,6 6,5 6,7 16 9 42 23 WSW 1006,0 20 19 0,0
23.02.2017 15:00:00 16,9 2,1 17,3 6,4 6,7 19 10 55 30 SW 1006,4 25 17 0,0
23.02.2017 14:00:00 16,6 2,9 17,9 6,3 6,7 20 11 50 27 SW 1007,2 25 58 0,0
23.02.2017 13:00:00 16,4 2,0 18,2 6,2 6,7 18 10 47 26 SW 1008,2 - 48 0,0
23.02.2017 12:00:00 15,0 2,2 17,2 6,2 6,6 22 12 45 24 SW 1009,8 25 60 0,0
23.02.2017 11:00:00 12,5 2,9 13,6 6,3 6,7 22 12 47 25 SW 1010,6 22 60 0,0
23.02.2017 10:00:00 9,4 4,2 7,1 6,4 6,6 14 7 30 16 SW 1011,8 15 50 0,0
23.02.2017 09:00:00 6,8 4,8 3,6 6,5 6,6 8 4 24 13 SSW 1012,4 8 48 0,0
23.02.2017 08:00:00 4,4 4,4 -2,8 6,6 6,6 11 6 20 11 SW 1013,4 4,5 0 0,0
23.02.2017 07:00:00 1,1 0,8 -2,8 6,7 6,6 0 0 3 2 N 1014,2 2,5 0 0,0
23.02.2017 06:00:00 1,7 1,4 -2,5 6,8 6,6 0 0 3 2 N 1015,1 - 0 0,0
23.02.2017 05:00:00 2,0 1,6 -2,0 6,9 6,6 3 2 5 3 NNE 1015,6 - 0 0,0
23.02.2017 04:00:00 3,9 3,8 -1,4 6,9 6,6 0 0 5 3 N 1016,2 - 0 0,0
23.02.2017 03:00:00 3,2 2,6 -0,6 7,0 6,6 3 1 6 4 SW 1017,5 - 0 0,0
23.02.2017 02:00:00 3,8 3,1 -0,5 7,1 6,6 0 0 8 5 N 1018,2 - 0 0,0
23.02.2017 01:00:00 5,4 4,4 0,8 7,2 6,6 4 2 9 5 SSW 1018,3 - 0 0,0
23.02.2017 00:00:00 6,2 4,4 3,1 7,2 6,6 6 3 12 7 SSW 1018,5 - 0 0,0
22.02.2017 23:00:00 6,1 4,3 3,0 7,2 6,6 3 2 8 4 SSW 1018,8 - 0 0,0
22.02.2017 22:00:00 6,8 4,3 3,8 7,2 6,6 3 2 13 7 SSW 1019,4 - 0 0,0
22.02.2017 21:00:00 7,9 4,5 7,3 7,2 6,6 9 5 17 9 SW 1019,4 - 0 0,0
22.02.2017 20:00:00 7,9 4,3 7,2 7,2 6,6 8 5 19 10 SW 1019,7 - 0 0,0
22.02.2017 19:00:00 8,5 3,7 7,8 7,2 6,6 11 6 28 15 SW 1019,9 - 0 0,0
22.02.2017 18:00:00 8,9 3,9 8,7 7,1 6,6 15 8 31 17 SW 1019,7 - 0 0,0
22.02.2017 17:00:00 9,2 4,4 9,4 7,1 6,6 14 8 38 20 SW 1020,1 20 0 0,0
22.02.2017 16:00:00 9,4 4,4 10,1 7,1 6,6 16 9 37 20 SW 1019,9 20 0 0,0
22.02.2017 15:00:00 9,2 5,0 9,3 7,0 6,6 16 9 43 23 SW 1020,5 20 0 0,0

tt = temperature
td = dewpoint
tt 5cm = temperature 5cm
tt -20cm = temperature -20cm
tt -100cm = temperature -100cm
ff = wind speed
fx = gusts
dd = wind direction
ppp = reduced air pressure
vv = visibility
sd = sunshine duration
rr = precipitation

Next stations